STARLINK-1586 (46137 NORAD) Tracking and Keplerian Element Data

This shows tracking and keplerian element data for the satellite.

Feedback or suggestion? Click here.




ElementValue
Catalog46137
NameSTARLINK-1586
Epoch Orbit184
Epoch Day336.91667824
Epoch Year2020
RAAN292.7578
Inclination53.0023
Eccentricity0.0001898
Argument of Perigee69.7217
Mean Anonmoly189.1508
Mean Motion15.05595673
Decay Rate2.991E-05
L11 46137U 20057W 20336.91667824 .00002991 00000-0 22428-3 0 9994
L22 46137 53.0023 292.7578 0001898 69.7217 189.1508 15.05595673 1845

Live tracking and technical data element details for STARLINK-1586 (NORAD 46137). STARLINK-1586 can be tracked NOW for your location showing map with azimuth and elevation plus other details from your city location.

Track the satellite on the map from your city or location and see movement details for azimuth, elevation, latitude, longitude, range, height, and movement on the map or in text.







IsCatalogInMostPopularTable: catalog: 46137, numindb: 19
Update: records affected: 1



GetName: 46137 STARLINK-1586

Hit Count: updated at: Thu, 03 Dec 2020 02:58:19 GMT